PROFILE

 METAR AND TAF INFORMATION
ADDS - METARS form results

(1343 UTC 25 September 2022)
http://aviationweather.gov/metar/data/
 
LFPO 251330Z 35008KT 300V050 CAVOK 19/06 Q1016 NOSIG
LFPO 251300Z 04010KT 360V070 CAVOK 19/07 Q1016 NOSIG
TAF LFPO 251100Z 2512/2618 01010KT CAVOK BECMG 2516/2518 31005KT PROB30 TEMPO 2516/2518 -SHRA FEW050TCU BECMG 2606/2608 22012KT TEMPO 2609/2616 22020G30KT 4000 RA BKN012 BKN025 BECMG 2616/2618 30010KT PROB40 TEMPO 2616/2618 4000 SHRA SCT020TCU 

 AIRPORT MAP

 RUNWAY INFORMATION
Runway 02 Runway length 7874 ft Runway width 197 ft
Runway elevation 287 ft Runway displaced threshold 0 ft Runway heading 18
Runway 20 Runway length 7874 ft Runway width 197 ft
Runway elevation 287 ft Runway displaced threshold 0 ft Runway heading 198
Runway 06 Runway length 11975 ft Runway width 148 ft
Runway elevation 283 ft Runway displaced threshold 984 ft Runway heading 62
Runway 24 Runway length 11975 ft Runway width 148 ft
Runway elevation 284 ft Runway displaced threshold 0 ft Runway heading 242
Runway 08 Runway length 10892 ft Runway width 148 ft
Runway elevation 277 ft Runway displaced threshold 0 ft Runway heading 74
Runway 26 Runway length 10892 ft Runway width 148 ft
Runway elevation 287 ft Runway displaced threshold 1427 ft Runway heading 254

 AIRPORT FREQUENCIES
Type APP Name APP Frequency 123.875 MHZ
Type ATIS Name ATIS Frequency 131.35 MHZ
Type DEP Name DEP Frequency 127.75 MHZ
Type GND Name GND Frequency 121.7 MHZ
Type PFLT Name PREFLIGHT Frequency 121.05 MHZ
Type TWR Name TWR Frequency 118.7 MHZ

 AIRPORT NEAR NAVIGATION AIDS
Type VOR-DME Name Orly Frequency 111200 KHZ